Tracking 18852 objects as of 23-Nov-2017
HD Live streaming from Space Station
objects crossing your sky now

FENGYUN 1C DEB

Track FENGYUN 1C DEB now!
10-day predictions


NORAD ID: 36689
Int'l Code: 1999-025DZK
Perigee: 782.1 km
Apogee: 1,293.5 km
Inclination: 98.5 °
Period: 105.8 minutes
Semi major axis: 7408 km
RCS: 0.0112 m2 (small)
Launch date: May 10, 1999
Source: People's Republic of China (PRC)
Launch site: Taiyaun Space Center, China (TSC)

Note: This is SATELLITE DEBRIS
aabbcc
Your satellite tracking list
Your tracking list is empty




NASA's NSSDC Master Catalog

Two Line Element Set (TLE):
1 36689U 99025DZK 17326.37299808 +.00000296 +00000-0 +29140-3 0  9998
2 36689 098.4658 185.3698 0345096 175.8065 184.6106 13.61392147180735
Source of the keplerian elements: AFSPC